Regional Weather Roundup
Issued by NWS

Home | Current Version | Previous Version | Text Only | Print | Product List | Glossary On
Versions: 1 2 3 4 5 6 7 8 9 10 11 12 13 14 15 16 17 18 19 20 21 22 23 24 25 26 27 28 29 30 31 32 33 34 35 36 37 38 39 40 41 42 43 44 45 46 47 48 49 50
000
ASUS44 KMEG 292310
RWRTN
TENNESSEE HOURLY STATE WEATHER ROUNDUP
NATIONAL WEATHER SERVICE MEMPHIS TN
600 PM CDT TUE JUL 29 2014

TNZ002-004-019-021-049-052-054-088>092-300000-
WEST TENNESSEE

CITY           SKY/WX    TMP DP  RH WIND       PRES   REMARKS
MEMPHIS INTL   MOSUNNY   76  54  46 N12       30.11S
NWS MEMPHIS      N/A     75 N/A N/A MISG        N/A
JACKSON        SUNNY     74  54  49 N7        30.10F
DYERSBURG      SUNNY     73  50  43 N6        30.12S
UNION CITY     SUNNY     75  54  46 N6        30.10F
PARIS          SUNNY     73  53  49 NW3       30.10F
LEXINGTON      SUNNY     75  54  46 NW7       30.09F
SAVANNAH       MOSUNNY   79  55  44 NE6       30.10S
$$

TNZ008-025-027-028-033-062-065-066-300000-
NORTH MIDDLE TENNESSEE

CITY           SKY/WX    TMP DP  RH WIND       PRES   REMARKS
NASHVILLE      MOSUNNY   79  51  37 N12       30.07F
DICKSON        MOSUNNY   75  48  38 N6        30.09S
PORTLAND       PTSUNNY   73  54  49 N7        30.07S
CLARKSVILLE    PTSUNNY   77  51  40 N14       30.08S
LEBANON        SUNNY     77  52  41 N9        30.06S
SMYRNA         MOSUNNY   78  55  44 N7        30.07F
MURFREESBORO   SUNNY     77  51  39 N6        30.06F
COOKEVILLE     SUNNY     73  57  56 N3        30.08S
LIVINGSTON       N/A     69  52  54 N5        30.09F
CROSSVILLE     PTSUNNY   71  51  49 N9G18     30.11R
$$

TNZ061-075-076-078-094-096-097-300000-
SOUTH MIDDLE TENNESSEE

CITY           SKY/WX    TMP DP  RH WIND       PRES   REMARKS
LEWISBURG      MOSUNNY   77  53  43 N6        30.07F
FAYETTEVILLE   MOSUNNY   73  52  46 N10       30.08S
TULLAHOMA      SUNNY     73  52  46 N8        30.09S
WINCHESTER     SUNNY     73  54  49 N9        30.08F
MCMINNVILLE    MOSUNNY   73  57  56 NE6       30.08F
COLUMBIA       SUNNY     77  54  44 NW5       30.07F
SHELBYVILLE    SUNNY     77  55  47 N12       30.08S
$$

TNZ017-018-042-046-047-300000-
NORTHEAST TENNESSEE

CITY           SKY/WX    TMP DP  RH WIND       PRES   REMARKS
TRI CITIES     MOSUNNY   73  49  42 NW10      30.04R
ELIZABETHTON   PTCLDY    72  54  53 W8          N/A
$$

TNZ012-013-036-069-073-074-300000-
CENTRAL EAST TENNESSEE

CITY           SKY/WX    TMP DP  RH WIND       PRES   REMARKS
KNOXVILLE      MOSUNNY   73  50  44 N10       30.03S
OAK RIDGE      SUNNY     75  49  39 NW8       30.07R
GATLINBURG     PTCLDY    73  52  46 N10       30.04R
MORRISTOWN     CLEAR     70  52  52 N9        30.07R
$$

TNZ083-085-099-300000-
SOUTHEAST TENNESSEE

CITY           SKY/WX    TMP DP  RH WIND       PRES   REMARKS
CHATTANOOGA    MOSUNNY   77  51  40 N15       30.05R
$$

SKY/WX REPORTED AS FAIR MEANS FEW OR NO CLOUDS BELOW
12 THOUSAND FEET.




USA.gov is the U.S. government's official web portal to all federal, state and local government web resources and services.